Volver al catálogo

COSMOS 1275 DEB

LostPO
NORAD 42185·DEBRIS·🇷🇺 Russia

Lanzado Jun 4, 1981 desde Plesetsk Cosmodrome

Loading…

Próximos Pases (próximas 24 horas)

TLE

ObsoletoSource: Space-Track

Época: May 4, 2026, 18:48 UTC

1 42185U 81053SZ  26124.78400628  .00001501  00000-0  12617-2 0  9993
2 42185  83.0468 320.5934 0115299 242.4921 116.4485 13.84418820227906

Sigue COSMOS 1275 DEB en tiempo real con AllMySat

Download on the App Store